RH
81 78 78 78 79 80 72 69 65 66 63 60 53 45 53 66 40 12 43 43 43 46 27 16 14 18 19 34 51 62 95 69 53 59 52 52 57 52 50 46 26 23 59 51 77
82 80 78 76 80 78 77 66 68 64 59 56 38 20 44 58 33 18 33 39 43 42 21 23 27 26 24 29 42 82 96 40 41 50 59 54 61 58 66 63 54 39 48 52 49
84 86 83 79 77 77 76 71 68 63 59 39 23 16 23 52 20 21 29 37 39 31 24 21 24 25 21 31 40 64 71 54 48 40 29 39 48 54 64 68 59 68 59 50 51
88 89 87 82 77 77 78 72 62 67 51 31 10 12 10 39 22 18 34 32 31 24 26 25 29 26 23 25 26 42 39 26 28 30 29 29 26 36 49 58 52 52 47 47 53
90 88 84 78 76 76 76 79 66 64 64 17 14 10 13 30 27 18 22 16 21 26 29 29 31 28 31 33 32 33 30 28 26 33 30 23 24 29 46 43 41 42 47 55 55
88 80 65 74 72 73 70 72 67 35 36 58 43 14 17 34 22 15 13 17 23 30 32 30 28 28 32 36 37 30 34 35 32 33 30 34 30 24 26 28 28 30 36 40 48
84 58 49 33 44 42 56 48 43 21 17 51 47 22 26 28 17 15 13 17 25 29 36 37 28 35 50 52 40 53 60 44 39 44 50 42 45 41 62 49 41 38 36 50 71
86 62 34 16 13 25 36 26 23 12 20 25 23 14 34 27 16 17 17 15 24 24 27 31 28 41 39 39 58 65 55 54 34 42 46 50 67 79 69 63 73 65 64 69 71
91 77 31 16 10 19 28 36 24 16 11 14 13 13 21 21 22 22 21 22 22 27 25 26 30 40 37 50 63 60 75 64 46 35 46 59 77 75 67 76 70 69 67 67 71
81 62 19 21 11 17 17 15 16 18 13 13 11 14 18 27 24 26 21 18 27 27 39 40 39 44 49 62 92 83 82 70 65 49 54 54 90 86 70 72 85 73 72 70 73
66 24 13 19 12 14 22 18 14 27 18 21 20 17 23 23 25 27 28 26 27 26 54 48 50 76 65 46 59 68 90 93 70 47 48 68 87 87 75 72 78 81 76 77 75
60 22 16 18 15 15 19 44 53 25 30 24 26 25 23 27 32 28 29 35 33 39 43 60 65 46 38 35 42 54 70 80 44 35 44 84 91 88 84 89 88 90 82 87 76
52 18 12 21 15 17 43 58 50 36 28 21 26 29 30 24 35 33 34 42 44 38 50 79 52 35 42 41 52 56 75 68 62 46 48 54 75 82 86 69 70 76 85 82 87
37 18 13 28 19 23 27 50 55 46 36 17 24 27 27 31 29 28 32 42 39 47 48 46 36 43 56 52 50 65 35 53 69 78 84 85 89 78 74 69 77 79 87 88 89
18 16 14 13 16 27 32 33 49 40 38 21 24 26 27 20 24 30 35 38 52 46 46 42 49 62 65 55 44 51 49 56 67 94 95 80 93 85 62 78 86 87 86 91 87
27 18 15 16 19 30 33 40 44 60 35 17 28 35 36 36 35 37 47 43 43 50 34 52 42 58 78 48 41 48 49 64 84 94 95 85 90 88 87 94 85 82 84 90 90
24 19 15 16 23 31 38 44 61 54 16 21 32 37 42 45 38 46 65 76 81 72 72 59 57 50 53 64 44 70 75 89 87 93 95 75 81 94 92 88 90 93 90 90 91
14 20 20 15 25 35 37 27 31 25 19 34 37 36 42 46 44 52 65 81 68 83 91 99 67 65 64 77 82 90 85 96 100 100 84 69 96 77 85 72 72 77 82 80 92
18 22 18 13 26 36 26 48 29 30 34 34 30 27 28 44 44 52 80 82 84 83 90 98 83 57 54 68 72 75 93 84 98 92 97 98 81 74 71 70 77 81 79 85 89
23 22 15 17 17 23 28 25 47 38 39 37 21 37 33 48 41 62 76 56 69 62 67 82 98 69 53 63 69 69 81 86 93 98 97 86 90 90 86 88 84 86 90 86 86
27 26 16 20 14 30 36 32 42 35 32 34 34 39 46 55 54 72 68 52 56 60 72 89 94 68 54 83 100 92 91 91 88 99 98 100 82 76 93 93 95 90 89 90 90
21 13 17 16 20 28 24 26 30 40 36 39 40 43 49 52 54 53 63 56 52 57 76 78 95 100 72 77 90 92 93 93 95 90 100 99 88 83 92 94 82 83 85 84 86
28 27 19 11 13 22 26 28 26 32 35 36 38 42 43 48 48 50 48 43 46 52 83 53 76 72 48 56 85 94 100 98 98 97 100 88 76 82 77 76 78 87 86 89 81
30 23 21 37 35 28 29 22 27 30 35 32 35 41 45 46 49 64 53 45 48 50 51 45 74 46 56 44 60 77 88 99 90 100 96 94 75 61 69 72 76 81 82 91 85
36 27 38 16 18 31 35 27 24 32 32 33 36 42 51 55 46 60 55 51 48 60 57 54 74 70 75 63 56 65 70 95 94 91 96 76 93 66 71 75 79 84 74 72 70
30 37 41 33 34 24 56 30 24 22 36 32 43 31 49 51 44 39 66 49 41 66 75 68 76 80 87 52 60 54 46 64 89 100 98 100 100 72 74 83 89 77 70 73 64
44 38 60 42 41 50 37 22 21 21 26 26 37 35 53 49 47 44 42 50 60 63 76 87 87 94 89 57 51 49 68 86 84 93 80 86 64 79 74 76 76 73 78 79 67
Wind_Speed
15 15 16 14 13 11 11 10 11 11 9 9 10 9 1 5 6 50 33 31 34 32 31 27 23 25 5 3 3 1 4 11 7 2 4 2 3 3 3 6 3 2 3 9 17
16 14 13 12 11 9 7 8 11 12 11 11 10 12 3 4 5 29 31 37 32 29 29 18 8 13 5 4 3 3 5 7 2 4 7 12 8 12 6 5 4 4 13 24 22
14 14 13 12 12 11 9 7 9 11 12 12 9 9 6 2 7 14 38 35 29 26 20 12 7 3 3 3 4 5 7 11 10 13 15 13 14 8 6 8 1 4 14 18 18
13 14 14 13 11 10 10 7 6 10 12 17 17 9 22 3 6 22 35 29 23 22 22 13 7 5 5 6 5 7 6 11 9 12 15 14 14 14 14 12 12 10 13 14 15
14 14 14 13 13 11 8 5 4 4 8 6 14 19 7 8 4 35 29 27 22 23 16 5 6 3 4 5 8 6 7 8 16 14 13 17 16 15 18 17 19 16 13 12 10
15 15 14 13 13 12 10 6 2 2 3 4 7 10 12 10 14 35 28 27 24 22 15 2 2 2 1 4 3 5 14 17 12 17 16 16 17 8 9 15 22 18 16 15 13
13 14 14 12 15 15 11 3 3 3 4 4 3 6 20 6 27 34 28 28 24 21 9 7 2 18 8 7 4 11 11 14 7 9 13 7 7 4 19 16 17 17 14 11 13
12 14 15 10 15 10 10 6 8 9 6 4 6 10 5 6 26 40 27 28 26 24 14 15 9 7 13 11 5 7 4 9 16 13 9 10 3 16 22 14 14 16 15 16 17
14 14 16 9 12 6 9 11 13 12 15 5 3 7 3 4 19 35 27 21 20 16 25 14 11 4 13 12 5 5 9 16 11 12 17 12 10 17 19 18 18 18 18 17 18
14 14 15 11 12 5 11 14 9 1 3 2 13 4 4 5 7 26 30 17 6 20 6 7 4 10 14 11 8 14 14 10 16 12 17 16 9 14 18 20 18 18 18 18 18
13 11 14 8 12 5 7 2 4 6 16 6 4 5 5 11 2 25 31 5 7 6 6 6 14 14 13 14 7 8 5 9 13 8 14 9 8 15 17 22 22 20 19 20 20
15 13 13 4 6 8 4 6 2 5 6 3 3 3 2 3 5 23 24 6 7 13 10 6 13 13 14 17 17 10 13 4 10 15 10 5 9 11 16 17 17 18 20 20 21
15 13 13 3 1 7 13 8 7 5 5 2 2 3 3 4 4 14 16 4 6 11 10 4 5 16 16 17 23 18 6 8 18 23 13 12 4 11 11 16 18 19 17 20 20
14 13 12 3 2 3 4 5 5 2 4 6 5 5 5 3 4 11 19 4 7 7 5 2 8 13 15 19 19 14 16 21 16 4 1 2 2 8 13 15 20 20 21 20 21
11 10 10 7 3 3 1 5 4 0 4 2 3 3 4 6 4 11 13 7 3 8 4 4 7 12 13 19 16 11 24 14 7 3 3 7 1 9 8 16 22 19 19 19 20
11 7 7 4 4 2 2 6 5 5 4 3 2 6 4 4 3 7 7 8 1 4 4 4 5 4 4 19 11 19 11 4 3 1 4 10 4 6 9 14 16 17 17 18 18
11 5 4 4 2 1 7 3 4 6 2 6 4 5 3 5 4 6 6 8 6 8 9 7 5 5 6 9 5 13 8 4 5 5 1 9 7 1 7 11 13 15 16 16 16
10 4 3 6 3 3 6 3 7 2 1 2 4 4 4 7 3 6 3 6 3 3 2 6 9 5 8 2 5 6 4 3 2 4 5 7 2 2 3 6 9 10 12 15 15
9 2 2 10 0 4 3 5 5 4 2 4 3 3 3 2 2 5 2 2 4 1 3 5 6 4 3 2 4 6 5 3 2 1 3 4 4 4 7 11 12 13 15 16 14
6 2 1 7 1 1 4 3 3 0 3 3 1 3 3 5 6 5 2 3 2 1 2 3 6 2 5 2 4 4 1 4 4 5 5 4 4 4 11 15 15 16 14 15 15
3 2 1 2 2 5 3 4 3 2 1 3 2 2 2 3 1 2 3 4 2 1 4 4 3 7 2 3 3 5 4 4 3 2 1 3 4 5 6 9 12 12 12 12 14
2 1 1 2 4 2 3 4 4 3 1 2 3 3 2 1 3 3 4 6 5 2 1 4 4 4 7 4 2 4 4 4 3 6 1 1 6 4 6 7 10 10 11 11 10
1 2 1 2 2 2 1 2 2 3 3 4 4 4 2 3 2 4 4 2 5 3 2 2 1 5 8 4 1 1 1 4 4 2 4 2 5 2 5 7 8 7 8 10 10
2 2 3 4 2 6 5 3 4 0 3 3 3 3 2 3 5 4 3 2 4 3 2 1 2 6 6 9 1 6 3 2 4 1 3 6 8 13 8 10 11 9 9 7 8
3 1 1 2 1 3 2 5 4 4 2 4 2 6 6 1 3 5 4 3 1 1 3 2 3 3 8 15 10 12 12 6 7 6 6 5 7 12 10 8 7 9 9 9 9
1 1 2 2 2 4 2 6 7 3 7 4 4 5 7 6 9 6 5 4 5 1 2 1 3 1 5 2 3 12 14 8 6 3 7 2 10 11 7 5 6 8 8 10 10
1 1 3 1 2 3 4 5 6 6 4 4 6 4 6 13 7 6 6 3 4 6 3 2 1 3 5 5 8 4 6 7 4 4 6 4 9 1 5 6 5 6 6 8 8
Wind_Direction
39 37 35 34 33 32 35 45 32 13 16 20 15 15 324 234 9 24 29 348 345 342 340 348 358 356 343 331 329 279 238 246 256 254 254 23 348 337 310 272 285 287 31 339 328
32 32 31 30 31 28 40 41 30 36 34 18 21 19 13 236 356 30 355 347 346 345 350 349 348 344 353 349 319 199 231 249 198 15 355 330 345 329 335 326 302 316 351 352 352
23 24 21 13 15 15 13 29 39 38 31 25 25 21 23 218 67 342 344 346 347 347 354 339 348 14 20 340 342 307 255 352 356 353 354 335 319 320 302 282 190 352 328 335 338
13 16 12 12 9 5 9 10 31 34 40 54 53 42 54 173 44 333 340 349 352 357 358 354 360 27 3 345 336 328 313 322 314 336 331 323 311 302 292 271 306 308 309 312 321
10 10 6 9 9 7 5 7 6 21 50 32 37 36 52 50 81 349 350 4 5 2 358 352 23 5 2 335 323 263 284 314 314 305 295 291 282 278 284 289 295 303 308 308 318
12 8 7 9 3 353 339 336 26 29 63 39 1 36 66 73 358 359 3 9 10 1 338 338 0 307 257 247 248 300 302 299 298 293 289 267 264 252 252 301 294 292 296 301 338
11 8 13 15 7 359 360 15 59 54 62 49 330 54 65 105 12 10 10 13 14 21 353 26 91 52 326 309 298 294 294 304 296 310 309 307 266 285 349 308 271 313 303 327 7
360 2 13 19 15 34 38 67 74 77 79 90 119 83 100 124 7 15 13 16 27 39 36 64 56 88 29 293 341 339 11 342 314 317 336 328 309 14 0 25 45 11 9 2 359
354 351 1 17 17 57 69 102 111 86 73 99 73 97 60 343 1 6 15 6 10 30 42 51 48 51 8 12 12 33 323 318 306 350 344 360 313 15 18 30 29 19 6 0 351
355 353 356 7 13 102 115 99 92 288 353 25 43 74 70 319 5 2 9 19 13 360 24 17 55 30 13 16 350 318 314 295 295 323 322 323 51 31 25 35 29 20 10 5 355
350 352 357 11 18 39 186 255 2 6 36 81 150 113 291 326 49 8 359 1 358 38 25 11 39 14 351 344 334 292 272 270 288 309 336 339 73 36 24 31 24 15 10 6 357
347 352 356 23 22 28 122 83 132 135 101 101 142 129 78 308 6 5 9 41 22 27 7 16 36 357 347 349 347 332 313 299 296 321 329 310 56 53 34 33 22 13 7 1 355
347 352 359 39 15 42 80 100 118 124 97 21 47 20 347 58 39 355 13 358 34 14 10 45 354 350 355 353 351 339 302 310 308 316 278 236 249 26 20 27 19 17 9 9 359
349 352 359 4 351 60 75 130 146 119 87 342 336 346 350 131 72 25 13 42 17 352 354 329 330 350 347 351 348 320 331 313 300 293 289 177 180 32 2 10 16 6 6 2 359
352 355 2 23 36 32 15 146 144 123 35 3 353 330 10 59 321 8 19 20 20 334 18 297 318 334 351 341 338 300 320 301 295 187 318 19 315 349 1 360 2 357 356 358 357
345 345 5 354 46 43 148 151 124 44 302 353 21 349 22 34 51 335 19 16 312 341 4 273 283 1 308 327 327 331 333 359 76 96 52 342 320 7 14 347 345 350 351 352 354
335 313 358 26 331 108 149 147 38 84 23 353 339 351 82 331 21 32 15 14 36 6 12 330 323 317 360 330 317 4 18 356 11 15 8 4 59 326 323 348 348 341 341 346 355
329 289 296 354 331 148 165 42 66 215 1 27 348 301 50 353 34 13 34 19 24 62 349 17 337 12 325 104 284 8 82 67 335 347 315 16 39 239 248 334 336 343 340 348 356
332 264 224 341 33 173 77 49 198 202 126 5 308 4 351 18 7 19 59 207 228 136 90 9 278 312 328 31 6 322 30 218 267 197 282 319 307 296 314 343 350 349 355 348 348
328 290 206 348 143 159 73 145 150 162 128 97 39 35 318 320 1 42 3 228 324 139 171 262 294 258 305 49 13 97 195 17 9 20 339 312 289 305 331 335 341 343 348 342 338
314 50 23 359 80 51 107 182 145 132 155 120 167 271 245 304 340 303 250 273 180 286 151 143 135 289 345 18 217 348 7 31 118 68 343 309 281 218 270 306 325 327 331 335 332
20 8 359 134 45 57 112 156 128 159 108 112 120 191 202 215 272 269 256 219 191 186 311 199 153 287 244 260 166 125 167 128 97 300 114 176 277 213 246 298 312 322 326 333 335
5 266 353 156 171 106 182 92 141 145 185 156 167 203 147 206 295 219 251 180 171 184 192 202 354 334 347 355 175 108 198 117 99 87 229 133 270 285 290 308 309 314 321 323 333
11 335 340 55 45 130 152 180 160 39 153 151 130 122 139 236 213 276 262 244 191 200 50 33 167 166 205 234 184 300 214 164 134 153 188 231 282 301 316 319 315 320 322 312 330
27 331 204 310 24 101 106 152 153 187 210 168 170 207 171 238 240 225 230 294 142 60 77 97 223 211 248 260 272 261 266 185 185 198 209 256 224 277 286 276 283 301 315 337 351
83 155 2 104 80 120 302 212 181 171 152 215 207 185 176 197 200 235 152 215 242 86 104 71 272 341 286 304 187 284 276 251 200 195 277 260 278 243 266 274 280 291 321 328 341
85 127 113 149 102 95 226 185 208 153 202 165 182 155 206 238 229 229 200 177 177 158 150 133 106 26 271 324 300 286 225 193 208 189 173 230 254 254 281 281 270 290 290 300 317